When you browse on this site, cookies collect data to enhance your experience and personalize the content and advertising you see.
Visit our Privacy Policy to learn more. By continuing to use the site, you agree to this use of cookies and data.
  • In Hungary
  • List of Countries
  • For 7 days
  • Water Temperature
  • Weather Map
  • News
  • Weather Widgets
  • user-avatar
    Login

    Hourly Weather Combita

    Today, 10 December, Tuesday

    Time Temperature Precipitation Wind Pressure Humidity
    00:00 +10°C° 0 mm 1 mps 539 mmHg 96%
    01:00 +9°C° 0 mm 1 mps 538 mmHg 96%
    02:00 +9°C° 0 mm 1 mps 538 mmHg 95%
    03:00 +9°C° 0 mm 1 mps 538 mmHg 94%
    04:00 +9°C° 0 mm 1 mps 538 mmHg 93%
    05:00 +9°C° 0 mm 1 mps 538 mmHg 91%
    06:00 +9°C° 0 mm 1 mps 539 mmHg 89%
    07:00 +10°C° 0 mm 1 mps 539 mmHg 87%
    08:00 +12°C° 0 mm 1 mps 541 mmHg 75%
    09:00 +15°C° 0 mm 1 mps 542 mmHg 63%
    10:00 +19°C° 0 mm 1 mps 544 mmHg 51%
    11:00 +19°C° 0 mm 1 mps 544 mmHg 51%
    12:00 +20°C° 0 mm 1 mps 543 mmHg 51%
    13:00 +21°C° 0 mm 1 mps 543 mmHg 50%
    14:00 +19°C° 0.3 mm 1 mps 542 mmHg 60%
    15:00 +18°C° 0.3 mm 1 mps 541 mmHg 71%
    16:00 +16°C° 0.3 mm 1 mps 540 mmHg 81%
    17:00 +14°C° 0.4 mm 1 mps 539 mmHg 86%
    18:00 +12°C° 0.4 mm 1 mps 539 mmHg 92%
    19:00 +11°C° 0.4 mm 1 mps 538 mmHg 97%
    20:00 +11°C° 0.2 mm 1 mps 539 mmHg 97%
    21:00 +10°C° 0.2 mm 1 mps 539 mmHg 97%
    22:00 +10°C° 0.2 mm 1 mps 539 mmHg 97%
    23:00 +10°C° 0 mm 1 mps 539 mmHg 97%

    Tomorrow, 11 December, Wednesday

    Time Temperature Precipitation Wind Pressure Humidity
    00:00 +9°C° 0 mm 0 mps 539 mmHg 97%
    01:00 +9°C° 0 mm 0 mps 538 mmHg 97%
    02:00 +9°C° 0 mm 0 mps 538 mmHg 97%
    03:00 +9°C° 0 mm 0 mps 538 mmHg 96%
    04:00 +9°C° 0 mm 0 mps 538 mmHg 96%
    05:00 +9°C° 0 mm 0 mps 539 mmHg 95%
    06:00 +10°C° 0 mm 0 mps 539 mmHg 94%
    07:00 +10°C° 0 mm 0 mps 540 mmHg 93%
    08:00 +12°C° 0.1 mm 0 mps 541 mmHg 87%
    09:00 +14°C° 0.1 mm 1 mps 542 mmHg 81%
    10:00 +16°C° 0.1 mm 1 mps 543 mmHg 75%
    11:00 +16°C° 0.9 mm 1 mps 543 mmHg 76%
    12:00 +16°C° 0.9 mm 1 mps 542 mmHg 78%
    13:00 +16°C° 0.9 mm 1 mps 541 mmHg 79%
    14:00 +16°C° 1.5 mm 1 mps 541 mmHg 83%
    15:00 +15°C° 1.5 mm 1 mps 540 mmHg 87%
    16:00 +14°C° 1.5 mm 1 mps 539 mmHg 91%
    17:00 +13°C° 0.5 mm 1 mps 539 mmHg 93%
    18:00 +12°C° 0.5 mm 1 mps 538 mmHg 96%
    19:00 +10°C° 0.5 mm 1 mps 538 mmHg 98%
    20:00 +9°C° 0.1 mm 0 mps 538 mmHg 98%
    21:00 +9°C° 0.1 mm 0 mps 538 mmHg 98%
    22:00 +9°C° 0.1 mm 0 mps 539 mmHg 97%
    23:00 +8°C° 0 mm 0 mps 538 mmHg 97%

    Day after tomorrow, 12 December, Thursday

    Time Temperature Precipitation Wind Pressure Humidity
    00:00 +8°C° 0 mm 0 mps 538 mmHg 97%
    01:00 +7°C° 0 mm 0 mps 537 mmHg 97%
    02:00 +8°C° 0 mm 1 mps 537 mmHg 97%
    03:00 +8°C° 0 mm 1 mps 536 mmHg 97%
    04:00 +7°C° 0 mm 1 mps 536 mmHg 97%
    05:00 +8°C° 0 mm 1 mps 537 mmHg 96%
    06:00 +9°C° 0 mm 1 mps 537 mmHg 95%
    07:00 +9°C° 0 mm 1 mps 538 mmHg 94%
    08:00 +12°C° 0 mm 1 mps 540 mmHg 83%
    09:00 +15°C° 0 mm 1 mps 542 mmHg 73%
    10:00 +18°C° 0 mm 1 mps 543 mmHg 63%
    11:00 +19°C° 0.2 mm 1 mps 543 mmHg 61%
    12:00 +19°C° 0.2 mm 1 mps 542 mmHg 60%
    13:00 +18°C° 0.2 mm 2 mps 542 mmHg 59%
    14:00 +17°C° 0.5 mm 2 mps 541 mmHg 66%
    15:00 +16°C° 0.5 mm 2 mps 540 mmHg 73%
    16:00 +15°C° 0.5 mm 2 mps 539 mmHg 80%
    17:00 +14°C° 0.2 mm 1 mps 538 mmHg 86%
    18:00 +12°C° 0.2 mm 1 mps 538 mmHg 92%
    19:00 +10°C° 0.2 mm 1 mps 537 mmHg 98%
    20:00 +10°C° 0 mm 1 mps 538 mmHg 98%
    21:00 +9°C° 0 mm 0 mps 538 mmHg 97%
    22:00 +9°C° 0 mm 0 mps 539 mmHg 96%
    23:00 +8°C° 0 mm 0 mps 538 mmHg 96%

    13 December, Friday

    Time Temperature Precipitation Wind Pressure Humidity
    00:00 +8°C° 0 mm 0 mps 537 mmHg 96%
    01:00 +8°C° 0 mm 1 mps 537 mmHg 95%
    02:00 +7°C° 0 mm 1 mps 536 mmHg 95%
    03:00 +7°C° 0 mm 1 mps 536 mmHg 95%
    04:00 +6°C° 0 mm 1 mps 535 mmHg 95%
    05:00 +7°C° 0 mm 1 mps 536 mmHg 93%
    06:00 +8°C° 0 mm 1 mps 537 mmHg 91%
    07:00 +8°C° 0 mm 0 mps 538 mmHg 90%
    08:00 +10°C° 0 mm 0 mps 539 mmHg 78%
    09:00 +13°C° 0 mm 0 mps 541 mmHg 67%
    10:00 +16°C° 0 mm 0 mps 543 mmHg 56%
    11:00 +19°C° 0 mm 1 mps 543 mmHg 54%
    12:00 +19°C° 0 mm 1 mps 542 mmHg 53%
    13:00 +20°C° 0 mm 1 mps 542 mmHg 51%
    14:00 +18°C° 0.3 mm 1 mps 541 mmHg 61%
    15:00 +16°C° 0.3 mm 1 mps 540 mmHg 71%
    16:00 +15°C° 0.3 mm 1 mps 539 mmHg 81%
    17:00 +13°C° 0.4 mm 1 mps 538 mmHg 86%
    18:00 +12°C° 0.4 mm 1 mps 538 mmHg 92%
    19:00 +9°C° 0.4 mm 0 mps 537 mmHg 97%
    20:00 +9°C° 0.1 mm 0 mps 538 mmHg 98%
    21:00 +8°C° 0.1 mm 0 mps 538 mmHg 98%
    22:00 +8°C° 0.1 mm 0 mps 538 mmHg 98%
    23:00 +8°C° 0.1 mm 0 mps 538 mmHg 98%

    14 December, Saturday

    Time Temperature Precipitation Wind Pressure Humidity
    00:00 +8°C° 0.1 mm 0 mps 537 mmHg 97%
    01:00 +7°C° 0.1 mm 0 mps 537 mmHg 97%
    02:00 +7°C° 0 mm 0 mps 537 mmHg 97%
    03:00 +7°C° 0 mm 0 mps 537 mmHg 97%
    04:00 +7°C° 0 mm 0 mps 536 mmHg 97%
    05:00 +7°C° 0 mm 0 mps 537 mmHg 95%
    06:00 +8°C° 0 mm 0 mps 538 mmHg 94%
    07:00 +9°C° 0 mm 0 mps 539 mmHg 93%
    08:00 +11°C° 0.1 mm 0 mps 540 mmHg 84%
    09:00 +14°C° 0.1 mm 0 mps 542 mmHg 75%
    10:00 +16°C° 0.1 mm 0 mps 543 mmHg 66%
    11:00 +18°C° 0.2 mm 1 mps 543 mmHg 66%
    12:00 +18°C° 0.2 mm 1 mps 542 mmHg 66%
    13:00 +18°C° 0.2 mm 1 mps 541 mmHg 66%
    14:00 +16°C° 0.5 mm 1 mps 541 mmHg 71%
    15:00 +16°C° 0.5 mm 1 mps 540 mmHg 76%
    16:00 +15°C° 0.5 mm 1 mps 539 mmHg 81%
    17:00 +14°C° 0.4 mm 1 mps 539 mmHg 87%
    18:00 +11°C° 0.4 mm 0 mps 539 mmHg 92%
    19:00 +10°C° 0.4 mm 0 mps 538 mmHg 97%
    20:00 +10°C° 0.3 mm 0 mps 539 mmHg 97%
    21:00 +10°C° 0.3 mm 0 mps 539 mmHg 97%
    22:00 +10°C° 0.3 mm 0 mps 540 mmHg 97%
    23:00 +9°C° 0.1 mm 0 mps 539 mmHg 97%

    15 December, Sunday

    Time Temperature Precipitation Wind Pressure Humidity
    00:00 +9°C° 0.1 mm 0 mps 539 mmHg 97%
    01:00 +9°C° 0.1 mm 0 mps 539 mmHg 97%
    02:00 +8°C° 0 mm 0 mps 538 mmHg 97%
    03:00 +8°C° 0 mm 0 mps 538 mmHg 97%
    04:00 +8°C° 0 mm 0 mps 537 mmHg 97%
    05:00 +8°C° 0 mm 0 mps 538 mmHg 96%
    06:00 +9°C° 0 mm 0 mps 539 mmHg 95%
    07:00 +9°C° 0 mm 0 mps 540 mmHg 94%
    08:00 +11°C° 0 mm 0 mps 541 mmHg 86%
    09:00 +14°C° 0 mm 1 mps 542 mmHg 79%
    10:00 +16°C° 0 mm 1 mps 543 mmHg 72%
    11:00 +16°C° 0.6 mm 1 mps 543 mmHg 73%
    12:00 +18°C° 0.6 mm 1 mps 542 mmHg 73%
    13:00 +18°C° 0.6 mm 1 mps 542 mmHg 74%
    14:00 +16°C° 1.5 mm 1 mps 541 mmHg 79%
    15:00 +16°C° 1.5 mm 1 mps 540 mmHg 83%
    16:00 +15°C° 1.5 mm 1 mps 539 mmHg 88%
    17:00 +14°C° 1 mm 1 mps 539 mmHg 91%
    18:00 +12°C° 1 mm 1 mps 539 mmHg 94%
    19:00 +11°C° 1 mm 1 mps 539 mmHg 97%
    20:00 +11°C° 2.8 mm 1 mps 539 mmHg 97%
    21:00 +11°C° 2.8 mm 1 mps 540 mmHg 97%
    22:00 +11°C° 2.8 mm 1 mps 540 mmHg 98%
    23:00 +10°C° 2.5 mm 1 mps 540 mmHg 97%
    Show more